EW9372 Weather Reports


time (UTC)temp
C
wind
direction
speed
KPH
gust
KPH
rain 1hr
cm
rain 24hr
cm
rain mn
cm
humidity
%
barometer
mb
20260506170441 16 214 0.0 0.0 0.00 0.00 0.00 74 1019.3
20260506170424 16 231 0.0 0.0 0.00 0.00 0.00 76 1019.4
20260506165423 16 229 0.0 0.0 0.00 0.00 0.00 75 1019.1
20260506164923 16 229 0.0 0.0 0.00 0.00 0.00 75 1019.2
20260506164423 16 230 0.0 0.0 0.00 0.00 0.00 75 1019.1
20260506164417 16 231 0.0 0.0 0.00 0.00 0.00 76 1019.1
20260506163412 16 231 0.0 0.0 0.00 0.00 0.00 77 1019.2
20260506162825 16 231 0.0 0.0 0.00 0.00 0.00 77 1019.1
20260506162302 15 242 0.0 0.0 0.00 0.00 0.00 77 1019.1
20260506161752 15 232 0.0 0.0 0.00 0.00 0.00 77 1019.1
20260506161728 15 232 0.0 0.0 0.00 0.00 0.00 78 1019.1
20260506160725 15 231 0.0 0.0 0.00 0.00 0.00 78 1019.1
20260506160224 15 231 0.0 0.0 0.00 0.00 0.00 79 1019.1
20260506155724 15 230 0.0 0.0 0.00 0.00 0.00 79 1018.9
20260506155212 15 229 0.0 0.0 0.00 0.00 0.00 79 1018.9
20260506154706 15 229 0.0 0.0 0.00 0.00 0.00 80 1018.9
20260506154646 15 207 0.0 0.0 0.00 0.00 0.00 80 1018.9
20260506154352 15 227 0.0 0.0 0.00 0.00 0.00 80 1018.9
20260506153852 15 219 0.0 0.0 0.00 0.00 0.00 80 1018.9
20260506152640 15 205 0.0 0.0 0.00 0.00 0.00 81 1018.8
20260506152630 15 207 0.0 0.0 0.00 0.00 0.00 81 1018.7
20260506152125 15 206 0.0 0.0 0.00 0.00 0.00 81 1018.8
20260506151124 14 206 0.0 0.0 0.00 0.00 0.00 81 1018.7
20260506151116 14 186 0.0 0.0 0.00 0.00 0.00 82 1018.7
20260506150824 14 205 0.0 0.0 0.00 0.00 0.00 82 1018.7
20260506150323 14 186 0.0 0.0 0.00 0.00 0.00 82 1018.7
20260506145825 14 198 0.0 0.0 0.00 0.00 0.00 82 1018.7
20260506145112 14 198 0.0 0.0 0.00 0.00 0.00 82 1018.7
20260506144106 14 197 0.0 0.0 0.00 0.00 0.00 83 1018.8
20260506143536 13 196 0.0 0.0 0.00 0.00 0.00 83 1018.7
20260506143029 13 196 0.0 0.0 0.00 0.00 0.00 83 1018.7
20260506142520 13 197 0.0 0.0 0.00 0.00 0.00 83 1018.7
20260506142017 13 196 0.0 0.0 0.00 0.00 0.00 83 1018.6
20260506141504 13 195 0.0 0.0 0.00 0.00 0.00 83 1018.5
20260506140952 13 190 0.0 0.0 0.00 0.00 0.00 84 1018.5
20260506140448 13 185 0.0 0.0 0.00 0.00 0.00 84 1018.5
20260506135943 13 196 0.0 0.0 0.00 0.00 0.00 84 1018.5
20260506135933 13 204 0.0 0.0 0.00 0.00 0.00 84 1018.4
20260506134916 13 190 0.0 0.0 0.00 0.00 0.00 84 1018.4
20260506134412 13 194 0.0 0.0 0.00 0.00 0.00 84 1018.3
20260506133904 13 202 0.0 0.0 0.00 0.00 0.00 84 1018.2
20260506133340 13 178 0.0 0.0 0.00 0.00 0.00 84 1018.2
20260506133307 13 198 0.0 0.0 0.00 0.00 0.00 84 1018.2
20260506132253 13 195 0.0 0.0 0.00 0.00 0.00 84 1018.1
20260506131751 13 198 0.0 0.0 0.00 0.00 0.00 83 1018.1
20260506131233 13 187 0.0 0.0 0.00 0.00 0.00 83 1018.1
20260506125620 13 208 0.0 0.0 0.00 0.00 0.00 83 1018.2
20260506125108 13 207 0.0 0.0 0.00 0.00 0.00 83 1018.0
20260506124601 13 192 0.0 0.0 0.00 0.00 0.00 83 1018.0
20260506124043 13 195 0.0 0.0 0.00 0.00 0.00 83 1017.9
20260506123537 13 197 0.0 0.0 0.00 0.00 0.00 83 1017.9
20260506123038 13 200 0.0 0.0 0.00 0.00 0.00 83 1017.9
20260506121419 13 200 0.0 0.0 0.00 0.00 0.00 82 1017.9
20260506120908 13 195 0.0 0.0 0.00 0.00 0.00 82 1017.7
20260506120406 13 200 0.0 0.0 0.00 0.00 0.00 82 1017.7
20260506115845 13 184 0.0 0.0 0.00 0.00 0.00 82 1017.7
20260506115017 13 196 0.0 0.0 0.00 0.00 0.00 82 1017.7
20260506114017 13 185 0.0 0.0 0.00 0.00 0.00 83 1017.7
20260506114012 13 200 0.0 0.0 0.00 0.00 0.00 82 1017.7
20260506113509 13 202 0.0 0.0 0.00 0.00 0.00 83 1017.7
20260506112447 13 202 0.0 0.0 0.00 0.00 0.00 83 1017.6
20260506111320 13 194 0.0 0.0 0.00 0.00 0.00 82 1017.6
20260506110820 13 205 0.0 0.0 0.00 0.00 0.00 82 1017.5
20260506110804 13 201 0.0 0.0 0.00 0.00 0.00 82 1017.3
20260506105801 13 189 0.0 0.0 0.00 0.00 0.00 82 1017.3
20260506105254 13 188 0.0 0.0 0.00 0.00 0.00 82 1017.3
20260506104730 13 188 0.0 0.0 0.00 0.00 0.00 82 1017.3
20260506104224 13 196 0.0 0.0 0.00 0.00 0.00 82 1017.3
20260506103724 13 173 0.0 0.0 0.00 0.00 0.00 82 1017.3
20260506103222 13 175 0.0 0.0 0.00 0.00 0.00 82 1017.2
20260506102724 13 197 0.0 0.0 0.00 0.00 0.00 83 1017.3
20260506102220 13 198 0.0 0.0 0.00 0.00 0.00 83 1017.1
20260506101718 13 178 0.0 0.0 0.00 0.00 0.00 83 1017.1
20260506101220 13 202 0.0 0.0 0.00 0.00 0.00 83 1017.1
20260506100734 14 198 0.0 0.0 0.00 0.00 0.00 83 1016.9
20260506095230 14 192 0.0 0.0 0.00 0.00 0.00 83 1017.0
20260506093713 14 198 0.0 0.0 0.00 0.00 0.00 83 1017.0
20260506093208 14 184 0.0 0.0 0.00 0.00 0.00 82 1017.1
20260506093204 14 200 0.0 0.0 0.00 0.00 0.00 82 1017.0
20260506092158 14 185 0.0 0.0 0.00 0.00 0.00 82 1017.1
20260506091652 14 189 0.0 0.0 0.00 0.00 0.00 82 1017.1
20260506091147 14 203 0.0 0.0 0.00 0.00 0.00 82 1017.1
20260506090628 14 188 0.0 0.0 0.00 0.00 0.00 82 1017.2
20260506090124 14 190 0.0 0.0 0.00 0.00 0.00 82 1017.1
20260506085622 14 196 0.0 0.0 0.00 0.00 0.00 82 1017.3
20260506085101 14 196 0.0 0.0 0.00 0.00 0.00 82 1017.2
20260506084523 14 192 0.0 0.0 0.00 0.00 0.00 82 1017.1
20260506084019 14 182 0.0 0.0 0.00 0.00 0.00 82 1017.2
20260506083518 14 200 0.0 4.8 0.00 0.00 0.00 82 1017.2
20260506083018 14 196 1.6 4.8 0.00 0.00 0.00 82 1017.3
20260506082457 14 204 1.6 3.2 0.00 0.00 0.00 82 1017.2
20260506081954 14 215 0.0 3.2 0.00 0.00 0.00 82 1017.2
20260506081453 15 219 0.0 3.2 0.00 0.00 0.00 82 1017.2
20260506080953 15 245 0.0 3.2 0.00 0.00 0.00 82 1017.1
20260506080925 15 245 0.0 1.6 0.00 0.00 0.00 82 1017.0
20260506080633 15 245 0.0 3.2 0.00 0.00 0.00 82 1017.1
20260506080147 15 245 0.0 1.6 0.00 0.00 0.00 81 1017.1
20260506072740 15 245 0.0 0.0 0.00 0.00 0.00 80 1016.9
20260506072246 15 245 0.0 0.0 0.00 0.00 0.00 80 1016.8
20260506071742 15 245 0.0 0.0 0.00 0.00 0.00 80 1016.7
20260506071228 15 245 0.0 3.2 0.00 0.00 0.00 80 1016.7
20260506071224 15 245 0.0 1.6 0.00 0.00 0.00 80 1016.7
20260506070200 15 245 0.0 3.2 0.00 0.00 0.00 80 1016.7
20260506062319 15 245 1.6 8.0 0.00 0.00 0.00 79 1016.5
20260506061046 15 235 3.2 0.0 0.00 0.00 0.00 79 1016.4
20260506050720 16 191 0.0 1.6 0.00 0.00 0.00 77 1015.7
20260506050222 16 191 0.0 1.6 0.00 0.00 0.00 77 1015.7
20260506044636 16 204 0.0 3.2 0.00 0.00 0.00 77 1015.6
20260506044120 16 204 0.0 3.2 0.00 0.00 0.00 76 1015.6
20260506043617 16 198 0.0 3.2 0.00 0.00 0.00 76 1015.5
20260506043113 16 181 0.0 1.6 0.00 0.00 0.00 76 1015.5
20260506042548 16 182 0.0 1.6 0.00 0.00 0.00 76 1015.3
20260506042044 16 184 0.0 3.2 0.00 0.00 0.00 76 1015.3
20260506041523 16 185 0.0 3.2 0.00 0.00 0.00 76 1015.1
20260506041024 16 206 0.0 1.6 0.00 0.00 0.00 76 1015.1
20260506040524 16 206 0.0 1.6 0.00 0.00 0.00 76 1015.0
20260506040519 16 212 0.0 4.8 0.00 0.00 0.00 76 1015.0
20260506035459 16 213 1.6 4.8 0.00 0.00 0.00 76 1014.9
20260506035000 16 172 1.6 0.0 0.00 0.00 0.00 76 1014.8
20260506034125 16 178 1.6 6.4 0.00 0.00 0.00 75 1014.9
20260506033131 16 165 1.6 6.4 0.00 0.00 0.00 74 1014.8
20260506033124 16 161 1.6 6.4 0.00 0.00 0.00 75 1014.9
20260506032626 16 168 1.6 6.4 0.00 0.00 0.00 75 1014.8
20260506031625 16 184 1.6 6.4 0.00 0.00 0.00 74 1014.7
20260506031126 16 167 1.6 6.4 0.00 0.00 0.00 74 1014.7
20260506030620 16 184 1.6 4.8 0.00 0.00 0.00 74 1014.6
20260506030120 16 200 1.6 6.4 0.00 0.00 0.00 73 1014.7
20260506025622 16 186 1.6 6.4 0.00 0.00 0.00 73 1014.5
20260506025617 16 184 1.6 6.4 0.00 0.00 0.00 73 1014.6
20260506024620 17 190 1.6 6.4 0.00 0.00 0.00 72 1014.3
20260506024116 17 171 1.6 8.0 0.00 0.00 0.00 72 1014.3
20260506023604 17 228 1.6 8.0 0.00 0.00 0.00 72 1014.3
20260506023103 17 205 3.2 8.0 0.00 0.00 0.00 72 1014.3
20260506023059 17 176 1.6 6.4 0.00 0.00 0.00 72 1014.3
20260506022057 17 207 1.6 8.0 0.00 0.00 0.00 71 1014.1
20260506021601 17 187 3.2 6.4 0.00 0.00 0.00 70 1014.0
20260506021556 17 192 1.6 6.4 0.00 0.00 0.00 71 1014.0
20260506020557 17 195 1.6 8.0 0.00 0.00 0.00 70 1014.0
20260506020056 17 192 1.6 8.0 0.00 0.00 0.00 70 1014.0
20260506015557 17 201 1.6 8.0 0.00 0.00 0.00 69 1014.0
20260506015034 17 173 3.2 1.6 0.00 0.00 0.00 69 1013.9
20260506015028 17 216 1.6 4.8 0.00 0.00 0.00 69 1014.0
20260506013021 17 184 1.6 8.0 0.00 0.00 0.00 69 1013.9
20260506012530 17 196 1.6 6.4 0.00 0.00 0.00 68 1013.7
20260506012522 17 140 1.6 8.0 0.00 0.00 0.00 68 1013.8
20260506012022 17 144 1.6 6.4 0.00 0.00 0.00 69 1013.7
20260506011020 17 169 0.0 3.2 0.00 0.00 0.00 70 1014.0
20260506010520 17 144 0.0 3.2 0.00 0.00 0.00 69 1014.0
20260506010014 17 146 1.6 1.6 0.00 0.00 0.00 68 1014.0
20260506004711 18 155 1.6 3.2 0.00 0.00 0.00 68 1014.0
20260506004208 18 158 1.6 0.0 0.00 0.00 0.00 67 1013.8
20260506004203 18 141 1.6 4.8 0.00 0.00 0.00 68 1013.8
20260506003655 18 187 1.6 4.8 0.00 0.00 0.00 67 1013.7
20260506002151 18 153 1.6 6.4 0.00 0.00 0.00 66 1013.7
20260506001153 18 158 0.0 4.8 0.00 0.00 0.00 65 1013.7
20260506000648 18 131 0.0 1.6 0.00 0.00 0.00 65 1013.7
20260506000149 18 174 0.0 0.0 0.00 0.00 0.00 66 1013.7
20260505235632 18 178 0.0 3.2 0.00 0.00 0.00 66 1013.7
20260505235625 18 152 0.0 4.8 0.00 0.00 0.00 67 1013.6
20260505234623 18 124 0.0 4.8 0.00 0.00 0.00 67 1013.7
20260505234124 18 100 0.0 3.2 0.00 0.00 0.00 66 1013.6
20260505233620 18 161 0.0 3.2 0.00 0.00 0.00 66 1013.6
20260505233115 18 169 0.0 3.2 0.00 0.00 0.00 65 1013.6
20260505232609 18 173 0.0 6.4 0.00 0.00 0.00 64 1013.6
20260505232106 18 81 0.0 6.4 0.00 0.00 0.00 64 1013.6
20260505231600 18 84 0.0 3.2 0.00 0.00 0.00 65 1013.6
20260505231018 18 51 1.6 0.0 0.00 0.00 0.00 64 1013.7
20260505225804 18 221 0.0 0.0 0.00 0.00 0.00 64 1013.8
20260505225300 18 222 0.0 3.2 0.00 0.00 0.00 64 1013.8
20260505224758 18 224 0.0 3.2 0.00 0.00 0.00 64 1013.8
20260505224242 18 144 0.0 0.0 0.00 0.00 0.00 64 1013.8
20260505223742 18 144 0.0 0.0 0.00 0.00 0.00 66 1014.0
20260505223234 18 142 0.0 0.0 0.00 0.00 0.00 65 1013.9
20260505222730 18 186 0.0 0.0 0.00 0.00 0.00 66 1014.0
20260505222219 18 186 0.0 0.0 0.00 0.00 0.00 66 1014.1
20260505221704 18 186 0.0 0.0 0.00 0.00 0.00 65 1014.1
20260505221156 18 186 0.0 0.0 0.00 0.00 0.00 66 1014.1
20260505220644 18 180 0.0 3.2 0.00 0.00 0.00 66 1014.0
20260505220144 18 178 0.0 4.8 0.00 0.00 0.00 67 1014.1
20260505215839 18 153 0.0 8.0 0.00 0.00 0.00 67 1014.2
20260505215629 18 178 1.6 4.8 0.00 0.00 0.00 65 1014.1
20260505215612 18 242 3.2 8.0 0.00 0.00 0.00 67 1014.3
20260505215320 18 180 1.6 4.8 0.00 0.00 0.00 67 1014.1
20260505214318 18 145 1.6 8.0 0.00 0.00 0.00 66 1014.2
20260505213041 18 213 3.2 9.7 0.00 0.00 0.00 66 1014.4
20260505212542 18 217 3.2 9.7 0.00 0.00 0.00 67 1014.4
20260505212034 18 226 3.2 9.7 0.00 0.00 0.00 65 1014.4
20260505211534 18 243 3.2 6.4 0.00 0.00 0.00 65 1014.3
20260505210648 18 235 3.2 0.0 0.00 0.00 0.00 66 1014.4
20260505204524 17 227 3.2 11.3 0.00 0.00 0.00 69 1014.3
20260505204026 17 243 3.2 4.8 0.00 0.00 0.00 70 1014.3
20260505202821 18 249 6.4 16.1 0.00 0.00 0.00 66 1014.5
20260505202320 18 235 4.8 14.5 0.00 0.00 0.00 65 1014.5
20260505201823 19 355 4.8 8.0 0.00 0.00 0.00 63 1014.5
20260505201818 19 224 3.2 4.8 0.00 0.00 0.00 61 1014.5
20260505195707 19 231 3.2 8.0 0.00 0.00 0.00 66 1014.6
20260505195209 19 193 1.6 8.0 0.00 0.00 0.00 66 1014.6
20260505194716 18 234 1.6 6.4 0.00 0.00 0.00 69 1014.6
20260505194202 17 233 3.2 6.4 0.00 0.00 0.00 72 1014.5
20260505193655 17 236 3.2 6.4 0.00 0.00 0.00 69 1014.5
20260505193151 16 229 1.6 6.4 0.00 0.00 0.00 71 1014.5
20260505192651 16 242 1.6 6.4 0.00 0.00 0.00 76 1014.5
20260505192149 16 238 3.2 8.0 0.00 0.00 0.00 74 1014.5
20260505191649 16 250 3.2 8.0 0.00 0.00 0.00 76 1014.5
20260505191150 16 230 1.6 8.0 0.00 0.00 0.00 76 1014.4
20260505190649 15 234 0.0 8.0 0.00 0.00 0.00 76 1014.5
20260505190146 16 235 0.0 4.8 0.00 0.00 0.00 72 1014.4
20260505185642 16 235 0.0 1.6 0.00 0.00 0.00 76 1014.4
20260505184510 15 241 1.6 6.4 0.00 0.00 0.00 78 1014.4
20260505184009 15 231 1.6 8.0 0.00 0.00 0.00 78 1014.4
20260505184001 15 232 3.2 8.0 0.00 0.00 0.00 76 1014.4
20260505182955 15 210 3.2 6.4 0.00 0.00 0.00 77 1014.4
20260505181832 15 231 0.0 8.0 0.00 0.00 0.00 79 1014.3
20260505181331 15 238 0.0 4.8 0.00 0.00 0.00 80 1014.2
20260505181323 15 248 0.0 6.4 0.00 0.00 0.00 80 1014.1
20260505181031 15 238 1.6 6.4 0.00 0.00 0.00 77 1014.2
20260505175820 15 248 1.6 6.4 0.00 0.00 0.00 81 1014.1
20260505175310 14 236 1.6 8.0 0.00 0.00 0.00 82 1014.1
20260505175306 15 249 1.6 8.0 0.00 0.00 0.00 82 1014.1
20260505174307 14 227 1.6 6.4 0.00 0.00 0.00 83 1014.0
20260505173800 14 230 3.2 8.0 0.00 0.00 0.00 85 1014.0
20260505173251 14 232 1.6 8.0 0.00 0.00 0.00 86 1014.0
20260505172750 13 215 1.6 6.4 0.00 0.00 0.00 90 1014.0
20260505172241 13 161 1.6 6.4 0.00 0.00 0.00 91 1013.9
20260505171730 13 218 1.6 6.4 0.00 0.00 0.00 91 1013.9